Location: Breitenfeld
(46.8500°N, 15.6333°E)
Time: 23:36:25
(UTC+00:00)

Transit 4B - Pass Details

Date: 06 June 2022
Orbit: 948 x 1097 km, 32.4° (Epoch: 03 July)

Event Time Altitude Azimuth Distance (km) Brightness Sun altitude
Rises 20:51:52 0° 217° (SW) 3,885 11.4 -15.0°
Reaches altitude 10° 20:55:43 10° 198° (SSW) 2,917 10.6 -15.3°
Enters shadow 20:56:51 13° 190° (S) 2,705 10.4 -15.4°
